Location: San Gennaro Vesuviano
(40.8833°N, 14.5333°E)
Time: 22:59:33
(UTC+00:00)

Cosmos 407 Rocket - Pass Details

Date: 22 April 2021
Orbit: 743 x 787 km, 74.0° (Epoch: 10 May)

Event Time Altitude Azimuth Distance (km) Brightness Sun altitude
Rises 18:17:24 0° 164° (SSE) 3,168 6.3 -5.9°
Reaches altitude 10° 18:20:06 10° 151° (SSE) 2,252 5.5 -6.4°
Maximum altitude 18:24:09 24° 98° (E) 1,505 4.5 -7.1°
Drops below altitude 10° 18:28:15 10° 45° (NE) 2,280 5.7 -7.8°
Sets 18:31:00 0° 33° (NNE) 3,217 6.6 -8.2°
